Impacts METAR Board
IDs:

KDTW - Detroit Metro/Wayne, MI, US

Updated at: 1200 UTC 07 Jul 2020
Potential Impact None Slight Moderate High
Time 07/00Z 07/01Z 07/02Z 07/03Z 07/04Z 07/05Z 07/06Z 07/07Z 07/08Z 07/09Z 07/10Z 07/11Z 07/12Z
Temp85 82 80 79 79 74 76 74 72 72 72 70 74
Dewpt67 63 64 63 63 65 64 64 64 64 64 65 67
Altim29.97 29.98 29.99 29.99 30.00 30.00 29.99 29.97 29.98 29.97 29.97 29.98 29.98
VIS10 10 10 10 10 10 10 10 10 10 10 10 10
CIG250 -- -- -- -- -- -- -- -- -- -- -- --
CoverBKNSCTSCTSCTFEWSCTSCTSCTSCTSCTSCTFEWFEW
FltCatVFRVFRVFRVFRVFRVFRVFRVFRVFRVFRVFRVFRVFR
WX--------------------------
WDir170170000320000001800
WSpd8 4 0 0 0 3 0 0 0 0 0 3 0
WGst-- -- -- -- -- -- -- -- -- -- -- -- --
Raw hourly METARs
KDTW 062353Z 17008KT 10SM FEW060 SCT100 BKN250 29/19 A2997 RMK AO2 SLP144 60000 T02940194 10333 20256 56008
KDTW 070053Z 17004KT 10SM FEW065 SCT090 SCT250 28/17 A2998 RMK AO2 SLP145 T02780172
KDTW 070153Z 00000KT 10SM FEW065 SCT250 27/18 A2999 RMK AO2 SLP150 T02670178
KDTW 070253Z 00000KT 10SM FEW065 SCT250 26/17 A2999 RMK AO2 SLP150 T02610172 51006
KDTW 070353Z 00000KT 10SM FEW250 26/17 A3000 RMK AO2 SLP152 T02610172
KDTW 070453Z 32003KT 10SM SCT075 SCT250 23/18 A3000 RMK AO2 SLP154 T02330183 403330222
KDTW 070553Z 00000KT 10SM FEW075 SCT250 24/18 A2999 RMK AO2 SLP147 T02440178 10294 20233 58002
KDTW 070653Z 00000KT 10SM FEW075 SCT250 23/18 A2997 RMK AO2 SLP142 T02330178
KDTW 070753Z 00000KT 10SM FEW075 SCT250 22/18 A2998 RMK AO2 SLP146 T02220178
KDTW 070853Z 00000KT 10SM SCT250 22/18 A2997 RMK AO2 SLP144 T02220178 56005
KDTW 070953Z 00000KT 10SM SCT250 22/18 A2997 RMK AO2 SLP144 T02220178
KDTW 071053Z 18003KT 10SM FEW250 21/18 A2998 RMK AO2 SLP148 T02110183
KDTW 071153Z 00000KT 10SM FEW250 23/19 A2998 RMK AO2 SLP148 T02330194 10244 20200 52005



Page loaded:  12:16 UTC  |   05:16 AM Pacific  |   06:16 AM Mountain  |   07:16 AM Central  |   08:16 AM Eastern

 

ADVISORIES

FORECASTS

FORECASTS

OBSERVATIONS

USER TOOLS

ABOUT US